Content
SEND FEEDBACK

Daily
Averages
Monthly
Summary
United States of America

WATERSMEET, MICHIGAN


Home > North America > United States > Michigan
Elevation: 1610 feet     Latitude: 46 17N     Longitude: 089 10W

WEATHER
 
SELECT A DAY
Number of Records: 241,203;   Date Range: 1/25/05 - 12/25/14
 
SHARE

PRINT THIS DATA

[ ← Previous Day ]
WEATHER ALMANAC - MARCH 4, 2014
[ Next Day → ]
[ °C ]   °F
Weather ElementAverageHighLow
Temperature7.8 °F19 °F (2:55 pm)-12.5 °F (11:55 pm)
Dewpoint0.3 °F4.8 °F (4:55 pm)-17.7 °F (11:55 pm)
Humidity72.5 %88 % (9:15 pm)51 % (2:55 pm)
Barometer30.15 in30.29 in (11:35 pm)30.10 in (12:55 pm)
Wind Speed2.3 mph8.1 mph (4:15 pm)
Weather ElementAverage
Visibility7.9 mi
Wind DirectionENE (71.6 °)

Weather ElementTotal
Precipitation0.11 in
Heating Degree Days61.8 (Base 65)
Averaged from 73 records on March 4, 2014
WEATHER CONDITIONS BREAKOUT
WIND DIRECTION BREAKOUT
WEATHER BY HOUR - MARCH 4, 2014
[ °C ]   °F
Local TimeTemperatureDewpointHumidityBarometerVisibilityWind DirectionWind SpeedGust SpeedPrecipitationEventsConditions
12:35 AM6.8 °F1.8 °F80 %30.16 in5.0 miWSW (240°)4.6 mphSnowLight Snow
12:55 AM6.4 °F0.9 °F78 %30.15 in7.0 miWSW (250°)4.6 mphSnowLight Snow
1:15 AM6.3 °F1.0 °F79 %30.15 in7.0 miWest (270°)3.5 mphSnowLight Snow
1:35 AM6.3 °F0.9 °F78 %30.14 in7.0 miCalmSnowLight Snow
1:55 AM6.3 °F1.0 °F79 %30.14 in10.0 miCalmSnowLight Snow
2:15 AM5.9 °F1.0 °F80 %30.14 in5.0 miCalmSnowLight Snow
2:35 AM5.9 °F1.4 °F82 %30.14 in2.0 miCalmSnowLight Snow
2:55 AM5.7 °F1.4 °F82 %30.13 in3.0 miCalmSnowLight Snow
3:15 AM5.7 °F1.4 °F82 %30.13 in2.0 miWSW (250°)4.6 mphSnowLight Snow
3:35 AM5.7 °F1.4 °F82 %30.13 in2.0 miWSW (250°)3.5 mphSnowLight Snow
3:55 AM5.5 °F1.2 °F82 %30.12 in2.5 miCalmSnowLight Snow
4:15 AM5.5 °F1.0 °F82 %30.12 in1.8 miCalmSnowLight Snow
4:35 AM5.4 °F1.0 °F82 %30.12 in2.0 miWNW (290°)3.5 mphSnowLight Snow
4:55 AM5.4 °F1.0 °F82 %30.11 in1.5 miCalmSnowLight Snow
5:15 AM5.0 °F0.9 °F83 %30.11 in2.0 miCalmSnowLight Snow
5:35 AM5.0 °F1.0 °F84 %30.11 in2.0 miWest (260°)3.5 mphSnowLight Snow
5:48 AM5.0 °F1.4 °F85 %30.11 in2.0 miCalmSnowLight Snow
5:55 AM5.0 °F0.9 °F83 %30.12 in2.0 miCalmSnowLight Snow
6:01 AM5.0 °F1.4 °F85 %30.12 in2.0 miCalmSnowLight Snow
6:15 AM4.8 °F0.5 °F82 %30.12 in1.8 miCalmSnowLight Snow
6:35 AM4.6 °F0.5 °F83 %30.12 in1.5 miCalmSnowLight Snow
6:55 AM4.6 °F0.5 °F83 %30.12 in2.0 miCalmSnowLight Snow
7:15 AM5.0 °F0.5 °F82 %30.13 in4.0 miCalmSnowLight Snow
7:35 AM5.5 °F0.5 °F80 %30.13 in7.0 miCalmSnowLight Snow
7:55 AM5.7 °F0.5 °F79 %30.13 in10.0 miCalmSnowLight Snow
8:15 AM5.7 °F0.0 °F77 %30.12 in10.0 miCalmSnowLight Snow
8:35 AM6.8 °F0.1 °F74 %30.12 in10.0 miNNW (330°)3.5 mphSnowLight Snow
8:55 AM7.3 °F0.3 °F73 %30.12 in10.0 miCalmSnowLight Snow
9:15 AM8.2 °F0.5 °F71 %30.11 in10.0 miCalmClear
9:35 AM10.0 °F1.9 °F70 %30.11 in10.0 miCalm0.01 inClear
9:55 AM10.2 °F1.6 °F68 %30.11 in10.0 miCalm0.01 inClear
10:15 AM11.8 °F1.9 °F65 %30.11 in10.0 miCalm0.02 inClear
10:35 AM13.1 °F2.3 °F62 %30.11 in10.0 miNE (50°)3.5 mph0.02 inClear
10:55 AM14.9 °F2.8 °F59 %30.11 in10.0 miCalm0.02 inScattered Clouds
11:15 AM13.3 °F2.7 °F63 %30.11 in10.0 miCalm0.01 inScattered Clouds
11:35 AM14.2 °F3.0 °F61 %30.11 in10.0 miNorth (10°)5.8 mph0.01 inScattered Clouds
11:55 AM16.2 °F3.2 °F57 %30.11 in10.0 miCalm0.01 inClear
12:15 PM14.9 °F3.4 °F60 %30.11 in10.0 miNNW (340°)4.6 mphScattered Clouds
12:35 PM16.5 °F4.1 °F58 %30.11 in10.0 miNNE (20°)3.5 mphMostly Cloudy
12:55 PM16.5 °F3.4 °F56 %30.10 in10.0 miCalmScattered Clouds
1:15 PM16.7 °F3.7 °F57 %30.10 in10.0 miCalmScattered Clouds
1:35 PM16.3 °F3.4 °F57 %30.10 in10.0 miNorth (350°)3.5 mphScattered Clouds
1:55 PM17.4 °F3.6 °F55 %30.10 in10.0 miNNW (340°)4.6 mphScattered Clouds
2:15 PM18.0 °F3.6 °F53 %30.10 in10.0 miNNW (340°)6.9 mphMostly Cloudy
2:35 PM18.1 °F3.6 °F53 %30.10 in10.0 miNNW (340°)4.6 mphScattered Clouds
2:55 PM19.0 °F3.6 °F51 %30.10 in10.0 miNNW (330°)5.8 mphMostly Cloudy
3:15 PM18.3 °F3.9 °F53 %30.11 in10.0 miNorth (10°)4.6 mphMostly Cloudy
3:35 PM18.3 °F3.7 °F53 %30.11 in10.0 miNorth (350°)6.9 mphMostly Cloudy
3:55 PM18.9 °F3.7 °F52 %30.12 in10.0 miNorth (350°)6.9 mphMostly Cloudy
4:15 PM18.1 °F3.9 °F54 %30.12 in10.0 miNE (40°)8.1 mphScattered Clouds
4:35 PM16.0 °F3.4 °F58 %30.13 in10.0 miNorth (10°)3.5 mphClear
4:55 PM15.4 °F4.8 °F63 %30.13 in10.0 miNorth (10°)8.1 mphClear
5:15 PM14.7 °F4.5 °F64 %30.14 in10.0 miNorth (10°)5.8 mphClear
5:35 PM14.0 °F4.3 °F65 %30.15 in10.0 miNNE (20°)5.8 mphClear
5:55 PM12.9 °F3.9 °F67 %30.15 in10.0 miNNE (20°)3.5 mphClear
6:15 PM11.3 °F3.2 °F70 %30.17 in10.0 miNNE (20°)3.5 mphClear
6:35 PM10.4 °F2.8 °F72 %30.17 in10.0 miNorth (10°)3.5 mphClear
6:55 PM10.2 °F2.7 °F72 %30.18 in10.0 miNorth (10°)4.6 mphClear
7:15 PM9.1 °F2.3 °F74 %30.18 in10.0 miNorth (10°)3.5 mphClear
7:35 PM8.1 °F1.9 °F76 %30.19 in10.0 miNNE (20°)3.5 mphClear
7:55 PM7.2 °F1.2 °F77 %30.19 in10.0 miNorth (10°)3.5 mphClear
8:15 PM6.1 °F0.9 °F79 %30.20 in10.0 miNNE (20°)3.5 mphClear
8:35 PM0.3 °F-4.0 °F82 %30.21 in10.0 miCalmClear
8:55 PM-1.7 °F-4.7 °F87 %30.22 in10.0 miCalmClear
9:15 PM0.3 °F-2.4 °F88 %30.23 in10.0 miNorth (10°)3.5 mphClear
9:30 PM1.9 °F-1.8 °F84 %30.23 in10.0 miNNE (20°)4.6 mphClear
9:55 PM-1.7 °F-5.1 °F85 %30.24 in10.0 miNNE (20°)3.5 mphClear
10:15 PM-6.9 °F-11.2 °F81 %30.25 in10.0 miCalmClear
10:35 PM-8.5 °F-12.6 °F82 %30.27 in10.0 miCalmClear
10:55 PM-9.2 °F-13.9 °F80 %30.28 in10.0 miCalmClear
11:15 PM-11.2 °F-16.1 °F79 %30.28 in10.0 miCalmClear
11:35 PM-11.6 °F-16.1 °F80 %30.29 in10.0 miCalmClear
11:55 PM-12.5 °F-17.7 °F78 %30.29 in10.0 miCalmClear
Hourly data recorded from KLNL, located miles away from Watersmeet, Michigan







STORIES FROM OUR PARTNERS